星链-35749(STARLINK-35749)

导读

STARLINK-35828是美国SpaceX星链星座的成员卫星,于2025年11月6日发射升空。星链星座旨在构建全球卫星互联网,为全球各地提供高速低延迟的互联网服务,STARLINK-35828入轨后,将进一步扩展星链星座的覆盖范围,提升全球网络服务能力,助力星座组网运营。

基本信息
目录编号:
66351
目录名称:
STARLINK-35828
国际标识:
2025-254D
轨道中心:
EARTH
卫星名称:
星链-35749
卫星全名:
星链-35749(STARLINK-35749)
卫星状态:
在轨 (已飞行302 天)
发射日期:
2025-11-06 UTC
国别 :
美国 (US)
星等 :
--
轨道信息
数据来源 国际轨道数据
星历时间: 2026-09-04T12:16:43+0800
5小时前
查看轨道信息
半长轴: 6848.83km
偏心率: 0.0001292
轨道倾角: 53.158°
近地点辐角 86.290°
升交点赤经 121.934°
平近点角 273.825°
近地点: 469.808km
远地点: 471.578km
周期: 94.012分钟
每日圈数: 15.317161
详细信息
固有亮度:
5
最大亮度:
2.5
卫星平台:
Starlink V1.0
覆盖范围:
全球
运营商:
太空探索技术公司
运营商所在国:
美国
制造商(研发单位):
太空探索技术公司
制造商所在国:
美国
使用方式:
暂无
卫星简介
Starlink 计划是 SpaceX 推出的全球卫星互联网项目,通过发射低轨道卫星,为全球尤其是偏远地区提供高速、低延迟的互联网服务。自 2019 年起,Starlink 已部署数千颗卫星,旨在缩小全球数字鸿沟,推动互联网普及。该项目还为军事、航空等行业提供通信支持,带来广泛经济效益。
2D轨道图
3D轨道图
轨道高度分析图
轨道倾角分析图
轨道综合分析图
查看轨道综合分析图
交会数据列表
事件ID 空间交会对象 最接近时刻(TCA) 交会距离 交会风险概率(CRP) 交会风险指数(CRI) 操作
CDM_260828-043106-635106-754921
2026-08-28T
04:31:20+0000
0.372 km
远距离
2.447564E-4 高风险 0.83
CDM_260827-203606-635106-757422
2026-08-27T
20:36:20+0000
1.004 km
极远距离
2.590211E-5 中风险 0.63
CDM_260904-065906-635106-830721
2026-09-04T
06:59:39+0000
2.985 km
极远距离
1.218793E-6 低风险 0.37
CDM_260831-003606-635106-887021
2026-08-31T
00:36:02+0000
2.774 km
极远距离
1.130102E-6 低风险 0.36